SJ-11-03

Satellite information

Favourite Embed

Satellite Type and Status

PAYLOADIN ORBIT

Key statistics

Satellite SJ-11-03 at a glance.

Uptime

5236

Days in orbit

Revolutions

≈ 14.6

Per day

Orbit

SSO

Sun Synchronous Orbit

Inclination

97.9

Latest

Satellite identification and parameters

Extended collection of information and parameters for SJ-11-03.

Object identification

Identified? True

Debris? False

Object name: SJ-11-03

International designator: 2011-030A

Object number (NORAD): 37730

Object ID (CCSDS): 37730

Country: PEOPLES REPUBLIC OF CHINA (PRC)

Current information (Y/N): Y

RCS size: LARGE

Orbital parameters

Period: 98.363 minutes

Inclination: 97.904 deg

SMA: 7058.533 km

Apoapsis: 686.845 km

Periapsis: 673.951 km

RAAN: 275.514 deg

Eccentricy: 0.0009134

Argument of periapsis: 34.122 deg

Mean anomaly: 354.4101 deg

Mean motion: 14.63966302 rev/day

Mean motion (dot): 0.00000867 rev/day2

B* drag term: 0.00017423 1/REarth

Two-line elements (TLE)

Creation date: Nov. 3, 2025, 11:16 p.m.

Reference frame: TEME

Reference center: EARTH

Epoch: Nov. 3, 2025, 9:15 p.m. UTC

TLE line 0: 0 SJ-11-03

TLE line 1: 1 37730U 11030A 25307.88543205 .00000867 00000-0 17423-3 0 9998

TLE line 2: 2 37730 97.9040 275.5140 0009134 34.1220 354.4101 14.63966302764144

Live tracking on map

Real-time ground track for satellite SJ-11-03.

In-orbit conjunctions

There are no conjunctions computed for SJ-11-03, at the moment. Check back to stay up to date, as we update our databases every day.

Go to all conjunctions

Associated space launch

SJ-11-03 was lifted into orbit during the mission ‘Long March 2C | Shijian 10-03’, on board a Long March 2 space rocket.

The launch took place on July 6, 2011, 4:28 a.m. from Launch Area 4 (SLS-2 / 603).

For more information about the launch, click the button.

Launch to space Long March 2C | Shijian 10-03
Long March 2C | Shijian 10-03

Agency: N/A

Status: Launch Successful

Launch date: July 6, 2011, 4:28 a.m. UTC

Rocket: Long March 2

Launch pad: Launch Area 4 (SLS-2 / 603)

Location: Jiuquan Satellite Launch Center, People's Republic of China

...

Latest news about this satellite

There are no fresh news available about this satellite. Check back as we update our databases every day.


Newsletter sign-up

Weekly statistics, charts and insights to help you stay on top of the space industry.